Date String (YYYY-MM-DD hh:mm:ss) UTC,Instrument flags,Ambient pressure (hPa),Sample flow (lpm),Bypass flow (lpm),Sample temperature (°C),Ambient temperature (°C),ASC tube jacket temperature (°C),LED temperature (°C),Box temperature (°C),Sample RH (%),Span deviation,Mass concentration (μg/m³),Mass concentration (μg/m³),Mass concentration (μg/m³)
DateTimeUTC,F1_M11,P_M11,Q1_M11,Q2_M11,T1_M11,T2_M11,T3_M11,T4_M11,T5_M11,U1_M11,ZSPAN_M11,X0_M11,X2_M11,X1_M11
2023-01-21 13:00:00,,0825.9,5.02,0.00,22.1,20.8,00.0,30.9,23.7,09.3,0000.0,0006.32,0004.44,0004.22
2023-01-21 13:01:00,,0825.9,5.00,0.00,22.2,21.9,00.0,30.9,24.0,09.2,0000.0,0006.25,0004.42,0004.21
2023-01-21 13:02:00,,0825.9,5.01,0.00,22.3,22.7,00.0,30.9,24.2,09.2,0000.0,0006.17,0004.40,0004.20
2023-01-21 13:03:00,,0826.0,4.99,0.00,22.4,22.5,00.0,31.0,24.3,09.2,0000.0,0006.14,0004.39,0004.19
2023-01-21 13:04:00,,0826.0,5.00,0.00,22.4,22.0,00.0,31.0,24.2,09.2,0000.0,0006.94,0004.41,0004.18
2023-01-21 13:05:00,,0826.0,4.99,0.00,22.3,21.6,00.0,31.1,24.1,09.2,0000.0,0007.26,0004.39,0004.17
2023-01-21 13:06:00,,0825.9,4.99,0.00,22.3,21.2,00.0,31.1,24.0,09.2,0000.0,0007.19,0004.37,0004.16
2023-01-21 13:07:00,,0826.0,5.00,0.00,22.3,20.9,00.0,31.1,23.9,09.3,0000.0,0007.20,0004.38,0004.17
2023-01-21 13:08:00,,0826.0,5.00,0.00,22.2,20.8,00.0,31.1,23.9,09.3,0000.0,0007.23,0004.38,0004.17
2023-01-21 13:09:00,,0826.0,5.00,0.00,22.2,20.6,00.0,31.1,23.8,09.3,0000.0,0007.18,0004.37,0004.16
2023-01-21 13:10:00,,0825.9,5.00,0.00,22.2,20.5,00.0,31.0,23.8,09.3,0000.0,0006.98,0004.34,0004.15
2023-01-21 13:11:00,,0825.9,5.00,0.00,22.1,20.3,00.0,31.0,23.7,09.3,0000.0,0006.88,0004.33,0004.15
2023-01-21 13:12:00,,0825.9,5.00,0.00,22.1,20.3,00.0,31.0,23.7,09.4,0000.0,0006.92,0004.33,0004.15
2023-01-21 13:13:00,,0825.9,5.00,0.00,22.1,21.1,00.0,31.0,23.8,09.4,0000.0,0007.13,0004.35,0004.15
2023-01-21 13:14:00,,0825.9,5.00,0.00,22.2,22.2,00.0,31.0,24.1,09.3,0000.0,0007.58,0004.37,0004.16
2023-01-21 13:15:00,,0825.9,4.99,0.00,22.3,22.9,00.0,31.0,24.3,09.3,0000.0,0007.17,0004.36,0004.17
2023-01-21 13:16:00,,0825.9,4.99,0.00,22.4,22.4,00.0,31.0,24.3,09.3,0000.0,0006.87,0004.39,0004.18
2023-01-21 13:17:00,,0825.9,5.02,0.00,22.4,21.9,00.0,31.1,24.2,09.3,0000.0,0006.87,0004.39,0004.19
2023-01-21 13:18:00,,0826.0,5.00,0.00,22.3,21.5,00.0,31.1,24.1,09.3,0000.0,0006.88,0004.40,0004.20
2023-01-21 13:19:00,,0825.9,5.00,0.00,22.3,21.1,00.0,31.1,24.0,09.3,0000.0,0006.95,0004.42,0004.22
2023-01-21 13:20:00,,0826.0,4.99,0.00,22.3,20.9,00.0,31.1,23.9,09.3,0000.0,0007.13,0004.44,0004.23
2023-01-21 13:21:00,,0826.0,4.99,0.00,22.2,20.8,00.0,31.1,23.8,09.3,0000.0,0007.16,0004.46,0004.25
2023-01-21 13:22:00,,0826.0,5.01,0.00,22.2,20.6,00.0,31.0,23.8,09.3,0000.0,0007.26,0004.48,0004.26
2023-01-21 13:23:00,,0826.0,5.00,0.00,22.1,20.4,00.0,31.0,23.7,09.4,0000.0,0007.37,0004.49,0004.27
2023-01-21 13:24:00,,0826.0,4.99,0.00,22.1,20.3,00.0,31.0,23.6,09.4,0000.0,0007.29,0004.50,0004.28
2023-01-21 13:25:00,,0826.0,5.00,0.00,22.1,20.3,00.0,31.0,23.6,09.4,0000.0,0006.70,0004.52,0004.29
2023-01-21 13:26:00,,0826.0,5.01,0.00,22.1,21.2,00.0,30.9,23.8,09.4,0000.0,0006.69,0004.52,0004.30
2023-01-21 13:27:00,,0826.0,5.00,0.00,22.2,22.3,00.0,30.9,24.1,09.4,0000.0,0006.55,0004.52,0004.31
2023-01-21 13:28:00,,0826.1,4.99,0.00,22.3,22.6,00.0,31.0,24.3,09.3,0000.0,0006.65,0004.53,0004.30
2023-01-21 13:29:00,,0826.0,4.99,0.00,22.3,22.2,00.0,31.0,24.2,09.3,0000.0,0006.58,0004.52,0004.30
2023-01-21 13:30:00,,0826.0,5.01,0.00,22.3,21.7,00.0,31.0,24.1,09.3,0000.0,0006.68,0004.53,0004.29
2023-01-21 13:31:00,,0826.0,5.00,0.00,22.3,21.2,00.0,31.0,24.0,09.3,0000.0,0006.67,0004.52,0004.29
2023-01-21 13:32:00,,0826.0,4.99,0.00,22.3,21.0,00.0,31.0,23.9,09.3,0000.0,0006.71,0004.53,0004.29
2023-01-21 13:33:00,,0826.0,4.99,0.00,22.2,20.7,00.0,31.0,23.9,09.3,0000.0,0006.69,0004.54,0004.30
2023-01-21 13:34:00,,0826.0,5.01,0.00,22.2,20.6,00.0,31.0,23.8,09.3,0000.0,0006.54,0004.55,0004.30
2023-01-21 13:35:00,,0826.0,5.01,0.00,22.2,20.5,00.0,31.0,23.8,09.3,0000.0,0006.56,0004.55,0004.30
2023-01-21 13:36:00,,0826.0,4.99,0.00,22.1,20.4,00.0,31.0,23.7,09.3,0000.0,0006.61,0004.55,0004.30
2023-01-21 13:37:00,,0826.0,5.00,0.00,22.1,20.3,00.0,31.0,23.6,09.4,0000.0,0006.71,0004.58,0004.31
2023-01-21 13:38:00,,0826.1,5.01,0.00,22.0,20.6,00.0,31.0,23.6,09.4,0000.0,0006.73,0004.57,0004.30
2023-01-21 13:39:00,,0826.0,5.01,0.00,22.1,21.5,00.0,30.9,23.9,09.3,0000.0,0006.67,0004.57,0004.31
2023-01-21 13:40:00,,0826.1,5.01,0.00,22.2,22.5,00.0,30.9,24.1,09.3,0000.0,0006.71,0004.57,0004.31
2023-01-21 13:41:00,,0826.1,4.99,0.00,22.3,22.7,00.0,31.0,24.3,09.2,0000.0,0006.72,0004.58,0004.31
2023-01-21 13:42:00,,0826.0,4.99,0.00,22.3,22.2,00.0,31.0,24.2,09.2,0000.0,0006.63,0004.57,0004.32
2023-01-21 13:43:00,,0826.0,5.00,0.00,22.3,21.7,00.0,31.0,24.1,09.2,0000.0,0006.73,0004.58,0004.32
2023-01-21 13:44:00,,0826.0,5.00,0.00,22.3,21.3,00.0,31.0,24.0,09.2,0000.0,0006.88,0004.60,0004.32
2023-01-21 13:45:00,,0825.9,4.99,0.00,22.2,21.1,00.0,31.0,23.9,09.2,0000.0,0006.91,0004.61,0004.32
2023-01-21 13:46:00,,0825.9,5.02,0.00,22.2,20.9,00.0,31.0,23.8,09.3,0000.0,0006.99,0004.64,0004.33
2023-01-21 13:47:00,,0826.0,5.00,0.00,22.2,20.7,00.0,31.0,23.7,09.3,0000.0,0006.93,0004.64,0004.35
2023-01-21 13:48:00,,0826.0,5.01,0.00,22.1,20.6,00.0,31.0,23.7,09.3,0000.0,0006.86,0004.63,0004.34
2023-01-21 13:49:00,,0826.0,5.00,0.00,22.1,20.4,00.0,31.0,23.6,09.3,0000.0,0006.86,0004.64,0004.35
2023-01-21 13:50:00,,0826.0,4.99,0.00,22.0,20.8,00.0,31.0,23.7,09.3,0000.0,0006.85,0004.63,0004.35
2023-01-21 13:51:00,,0826.0,5.00,0.00,22.1,21.8,00.0,30.9,23.9,09.2,0000.0,0006.86,0004.64,0004.34
2023-01-21 13:52:00,,0826.0,5.00,0.00,22.3,22.7,00.0,30.9,24.2,09.2,0000.0,0007.17,0004.64,0004.35
2023-01-21 13:53:00,,0826.1,4.98,0.00,22.3,22.6,00.0,31.0,24.3,09.1,0000.0,0007.47,0004.64,0004.35
2023-01-21 13:54:00,,0826.0,5.00,0.00,22.4,22.1,00.0,31.0,24.2,09.1,0000.0,0007.38,0004.62,0004.34
2023-01-21 13:55:00,,0825.9,5.02,0.00,22.3,21.6,00.0,31.0,24.1,09.1,0000.0,0007.16,0004.58,0004.34
2023-01-21 13:56:00,,0826.0,5.00,0.00,22.3,21.3,00.0,31.0,24.0,09.1,0000.0,0007.12,0004.57,0004.34
2023-01-21 13:57:00,,0826.0,4.99,0.00,22.3,21.0,00.0,31.0,23.9,09.2,0000.0,0007.04,0004.54,0004.32
2023-01-21 13:58:00,,0826.0,4.99,0.00,22.2,20.8,00.0,31.0,23.9,09.2,0000.0,0006.98,0004.52,0004.32
2023-01-21 13:59:00,,0826.0,5.01,0.00,22.2,20.6,00.0,31.0,23.8,09.2,0000.0,0007.01,0004.52,0004.32
